Zurück zum Katalog

FENGYUN 1C DEB

AktivPO
NORAD 32224·DEBRIS·🇨🇳 China

Gestartet May 10, 1999 von Taiyuan Satellite Launch Center

Loading…

Nächste Überflüge (nächste 24 Stunden)

TLE

AktuellSource: Space-Track

Epoche: Sep 13, 2026, 08:45 UTC

1 32224U 99025CVW 26256.36473575  .00000532  00000-0  19959-3 0  9995
2 32224  99.0171 223.6603 0075595 344.3987  15.4868 14.34459572996609

Verfolge FENGYUN 1C DEB in Echtzeit mit AllMySat

Download on the App Store